Location: Unspecified
(44.4377°N, 88.0525°W)
Time: 03:51:08
(UTC-06:00)

CZ-3 Stage 3 - Visible Passes

Search period start: 20 January 2017 00:00
Search period end: 30 January 2017 00:00
Orbit: 435 x 34768 km, 30.5° (Epoch: 19 January)

Date Brightness Start Highest point End Pass type
(mag) Time Alt. Az. Time Alt. Az. Time Alt. Az.
20 Jan 9.7 21:00:33 10° ENE 01:16:34 29° E 03:07:43 10° E visible
21 Jan 9.1 05:38:50 11° W 07:27:10 23° W 11:58:30 10° WNW visible
22 Jan 8.1 02:12:39 48° SSW 04:18:45 62° SW 10:40:14 10° S visible
22 Jan 7.7 21:47:33 10° SSE 04:36:17 68° SE 07:02:42 10° ESE visible
23 Jan 9.6 20:47:54 10° ENE 01:06:43 29° E 02:58:38 10° E visible
24 Jan 9.2 05:37:11 14° W 07:18:05 23° W 11:48:15 10° WNW visible
25 Jan 8.1 02:10:49 51° SSW 04:07:44 62° SW 10:31:16 10° S visible
25 Jan 7.7 21:38:13 10° SSE 04:25:11 68° SE 06:53:52 10° ESE visible
26 Jan 9.6 20:35:19 10° ENE 00:56:54 28° E 02:49:31 10° E visible
27 Jan 9.2 05:34:51 15° W 07:08:57 24° W 11:37:50 10° WNW visible
28 Jan 8.1 02:08:18 53° SSW 03:56:44 63° SW 10:22:16 10° S visible
28 Jan 7.7 21:28:54 10° SSE 04:14:05 68° SE 06:45:01 10° ESE visible
